Regional Weather Roundup
Issued by NWS San Angelo, TX

Home | Current Version | Previous Version | Graphics & Text | Print | Product List | Glossary Off
Versions: 1 2 3 4 5 6 7 8 9 10 11 12 13 14 15 16 17 18 19 20 21 22 23 24 25 26 27 28 29 30 31 32 33 34 35 36 37 38 39 40 41 42 43 44 45 46 47 48 49 50

000
ASUS44 KSJT 241702
RWRSJT
WEST CENTRAL TEXAS REGIONAL WEATHER ROUNDUP
NATIONAL WEATHER SERVICE SAN ANGELO TX
1200 PM CDT FRI OCT 24 2014

NOTE: "FAIR" INDICATES FEW OR NO CLOUDS BELOW 12,000 FEET WITH NO
SIGNIFICANT WEATHER AND/OR OBSTRUCTIONS TO VISIBILITY.

TXZ049-054-064>066-071>073-076>078-098-099-113-114-127-128-139-140-
154-155-168>170-241800
...LOCATIONS ACROSS WEST CENTRAL TEXAS...

CITY           SKY/WX    TMP DP  RH WIND       PRES   REMARKS
SAN ANGELO     SUNNY     79  59  50 SW13      30.19S
ABILENE        SUNNY     79  61  53 S10       30.18S
DYESS AFB      SUNNY     81  60  49 SW10      30.16F
JUNCTION       SUNNY     78  58  49 S9        30.20S
SWEETWATER     SUNNY     76  60  59 SW9       30.22S
BROWNWOOD      NOT AVBL
COLEMAN        SUNNY     78  62  56 W10       30.19F
SONORA         SUNNY     77  59  53 SW9       30.26R
OZONA          FAIR      73  61  64 S10       30.24F
BRADY          NOT AVBL
$$

TEXAS PANHANDLE/OKLAHOMA PANHANDLE

CITY           SKY/WX    TMP DP  RH WIND       PRES   REMARKS
AMARILLO       SUNNY     76  47  35 W6        30.18S
BORGER         SUNNY     73  51  46 VRB5      30.15S
CANADIAN       SUNNY     70  63  78 CALM      30.11F
DALHART        SUNNY     78  46  32 W6        30.19S
DUMAS          SUNNY     78  49  36 SW7       30.17S
GUYMON         NOT AVBL
HEREFORD       SUNNY     76  50  40 SW6       30.20F
PAMPA          SUNNY     73  55  52 W8        30.16S
PERRYTON       NOT AVBL
$$

SOUTHERN PANHANDLE/SOUTH PLAINS/ROLLING PLAINS

CITY           SKY/WX    TMP DP  RH WIND       PRES   REMARKS
LUBBOCK        MOSUNNY   77  58  51 SW13      30.19S
SNYDER         MOSUNNY   64  64  97 SW7       30.20F
CHILDRESS      SUNNY     78  59  51 SW10      30.12F
SEMINOLE       SUNNY     76  60  57 SW9       30.23S
$$

PERMIAN BASIN

CITY           SKY/WX    TMP DP  RH WIND       PRES   REMARKS
MIDLAND        SUNNY     80  57  45 SW12      30.20S
ODESSA         SUNNY     77  59  53 SW9       30.21S
WINK           MOSUNNY   68  32  26 CALM      30.20S
$$

FAR WEST/SOUTHWEST MOUNTAINS/TRANS PECOS

CITY           SKY/WX    TMP DP  RH WIND       PRES   REMARKS
ALPINE         SUNNY     75  51  43 SW7       30.35S
DRYDEN           N/A     73  64  73 SW5       30.19S
EL PASO        SUNNY     69  52  54 CALM      30.27S
FORT STOCKTON  SUNNY     79  57  46 W7        30.21F
GUADALUPE PASS NOT AVBL
MARFA          SUNNY     70  54  56 S5        30.35S
PECOS          SUNNY     69  60  74 CALM      30.20F
$$

DALLAS/FORT WORTH METROPLEX

CITY           SKY/WX    TMP DP  RH WIND       PRES   REMARKS
DFW AIRPORT    MOSUNNY   75  55  49 S10       30.16F
FTW MEACHAM    SUNNY     77  59  53 S10       30.15F
DAL-EXECUTIVE  SUNNY     76  54  46 VRB6      30.17F
GRAND PRAIRIE  SUNNY     75  57  53 MISG      30.18F
ADDISON        NOT AVBL
MESQUITE       SUNNY     72  54  53 S10       30.19S
LANCASTER      SUNNY     72  53  52 S8        30.19F
$$

NORTH CENTRAL TEXAS

CITY           SKY/WX    TMP DP  RH WIND       PRES   REMARKS
SHRMAN/DENISON SUNNY     75  61  62 S10       30.17F
GAINESVILLE    SUNNY     74  59  60 S10       30.17S
BRIDGEPORT     SUNNY     79  63  57 W5        30.16F
DENTON         SUNNY     75  58  55 S8G20     30.15F
WAXAHACHIE     MOSUNNY   74  56  52 SE9       30.19F
GRANBURY       SUNNY     79  61  53 SW5       30.17F
$$

WESTERN NORTH TEXAS

CITY           SKY/WX    TMP DP  RH WIND       PRES   REMARKS
WICHITA FALLS  MOSUNNY   78  63  59 SW9       30.12S
VERNON         SUNNY     82  61  47 SW13      30.11S
BRECKENRIDGE   NOT AVBL
COMANCHE       SUNNY     79  62  56 W10       30.19S
$$

CENTRAL AND SOUTH CENTRAL TEXAS

CITY           SKY/WX    TMP DP  RH WIND       PRES   REMARKS
AUSTIN/BERGSTM MOSUNNY   77  59  53 S6        30.18F
WACO           SUNNY     74  56  53 S9        30.19S
HILLSBORO      NOT AVBL
TEMPLE         SUNNY     73  55  53 S8        30.19S
KILLEEN-GRAY   SUNNY     77  58  53 SW7       30.18F
FORT HOOD      PTSUNNY   80  59  48 S5        30.18S
GEORGETOWN     SUNNY     75  61  60 S5        30.18F
LAGO VISTA     FAIR      77  59  54 SW3       30.20F
SAN MARCOS     SUNNY     77  57  50 CALM      30.19F
NEW BRAUNFELS  SUNNY     79  57  46 W5        30.17F
RANDOLPH AFB   SUNNY     78  58  49 VRB2      30.19F
SAN ANTONIO    SUNNY     79  59  50 CALM      30.19F
STINSON        SUNNY     79  57  46 CALM      30.17F
PLEASANTON     NOT AVBL
LA GRANGE      SUNNY     75  58  54 CALM      30.17S
GIDDINGS       NOT AVBL
$$

EAST TEXAS

CITY           SKY/WX    TMP DP  RH WIND       PRES   REMARKS
PARIS          SUNNY     70  52  52 S6        30.19F
CLARKSVILLE    NOT AVBL
TYLER          SUNNY     71  53  52 CALM      30.19F
LONGVIEW       SUNNY     70  51  51 VRB3      30.18F
PALESTINE      SUNNY     70  56  62 CALM      30.21S
NACOGDOCHES    SUNNY     70  50  49 E3        30.20S
$$

TEXAS HILL COUNTRY AND EDWARDS PLATEAU

CITY           SKY/WX    TMP DP  RH WIND       PRES   REMARKS
LLANO          NOT AVBL
HORSESHOE BAY  FAIR      80  58  46 CALM      30.19S
KERRVILLE      SUNNY     76  61  59 S7        30.22S
FREDERICKSBRG  SUNNY     76  59  56 SW7       30.21S
ROCKSPRINGS    NOT AVBL
HONDO          SUNNY     76  59  55 S7        30.21F
UVALDE         SUNNY     77  62  60 SW5       30.20F
DEL RIO        SUNNY     75  64  68 VRB5      30.18S
$$

SOUTHEAST TEXAS

CITY           SKY/WX    TMP DP  RH WIND       PRES   REMARKS
COLLEGE STN    MOSUNNY   72  54  53 CALM      30.19S
CALDWELL       NOT AVBL
CROCKETT       SUNNY     73  55  53 CALM      30.22F HAZE
BRENHAM        SUNNY     75  54  48 N3        30.20R
HUNTSVILLE     SUNNY     73  48  41 VRB3      30.19S
CONROE         SUNNY     71  48  43 VRB3      30.19S
HOUSTON BUSH   SUNNY     71  52  50 CALM      30.17F
HOUSTON HOBBY  SUNNY     73  49  42 NE7       30.17S
PERLAND        SUNNY     74  49  41 NE8       30.18S
WHARTON        NOT AVBL
$$

THE UPPER TEXAS COAST

CITY           SKY/WX    TMP DP  RH WIND       PRES   REMARKS
ORANGE         SUNNY     69  51  52 N6        30.18S
PORT ARTHUR    SUNNY     72  52  49 VRB6      30.16S
GALVESTON      SUNNY     71  55  56 N10       30.17S
ANGLETON       SUNNY     74  54  49 N7        30.16F
BAY CITY         N/A     75  55  49 NE7       30.16F
$$

TEXAS COASTAL BEND, RIO GRANDE PLAINS DEEP SOUTH TEXAS

CITY           SKY/WX    TMP DP  RH WIND       PRES   REMARKS
VICTORIA       SUNNY     81  56  42 N8        30.17S
BEEVILLE       FAIR      79  59  50 CALM      30.17S
ROCKPORT       SUNNY     80  60  50 NW8       30.16S
PORT ARANSAS   SUNNY     77  59  53 N6        30.16S
PORT LAVACA    SUNNY     77  59  54 NE7       30.17S
CORPUS CHRISTI MOSUNNY   80  64  58 N6        30.16S
KINGSVILLE NAS MOSUNNY   81  66  60 NE7       30.16S
COTULLA        SUNNY     82  60  47 VRB6      30.18S
LAREDO         SUNNY     82  63  52 CALM      30.20S
BROWNSVILLE    SUNNY     83  64  52 NE7       30.14S
PORT ISABEL    MOSUNNY   82  64  54 N9        30.14S
HEBBRONVILLE   SUNNY     80  58  46 CALM      30.18S
MCALLEN        SUNNY     81  63  54 N7        30.16S
WESLACO        SUNNY     82  62  50 NE3       30.15F
FALFURRIAS     SUNNY     79  62  56 CALM      30.16S
EDINBURG       SUNNY     82  64  53 CALM      30.16F
$$



USA.gov is the U.S. government's official web portal to all federal, state and local government web resources and services.